Regional Weather Roundup
Issued by NWS

Home | Current Version | Previous Version | Text Only | Print | Product List | Glossary On
Versions: 1 2 3 4 5 6 7 8 9 10 11 12 13 14 15 16 17 18 19 20 21 22 23 24 25 26 27 28 29 30 31 32 33 34 35 36 37 38 39 40 41 42 43 44 45 46 47 48 49 50
000
ASUS42 KKEY 281110
RWRKEY

FLORIDA REGIONAL WEATHER ROUNDUP FOR THE FLORIDA KEYS
NATIONAL WEATHER SERVICE KEY WEST FLORIDA
700 AM EDT TUE APR 28 2015

...SOUTH FLORIDA AND THE KEYS...

CITY           SKY/WX    TMP DP  RH WIND       PRES   REMARKS
FORT MYERS     CLOUDY    74  69  85 SE8       29.77R
SW REGIONAL AP CLOUDY    75  68  78 SE10      29.78R
NAPLES         CLOUDY    75  72  90 E8        29.77R
MIAMI          CLOUDY    79  72  79 E5        29.79S
WEST KENDALL   CLOUDY    79  72  79 SE6       29.79S
HOMESTEAD      CLOUDY    79  76  89 E3        29.78F
MARATHON       MOCLDY    83  79  88 S8G17     29.78R HX  94
BOCA CHICA NAS PTCLDY    81  76  84 S15       29.77S
KEY WEST INTL  CLEAR     82  76  81 S13       29.78R

...INTERNATIONAL WEATHER...

CITY           SKY/WX    TMP DP  RH WIND       PRES   REMARKS
NASSAU BAHAMAS MOCLDY    77  72  83 VRB1      29.82F
CANCUN MEXICO  PTCLDY    81  77  89 SE15      29.72R
COZUMEL MEXICO MOCLDY    77  77 100 SE5       29.72R

ADJACENT COASTAL WATERS...

STATION/POSITION TIME  SKY/WX   TEMP    WIND        PRES    WAVE
                                AIR SEA DIR/SP/G            HT/PER
                 (UTC)          (F)     (DEG/KT/KT) (MB)    (FT/S)
PULASKI SHOAL LI 1000            82     170/ 14/ 14 1007.4F
SAND KEY         1050            82     180/ 12/ 16 1008.3R
SOMBRERO KEY     1100            82     210/ 14/ 16 1008.9R
LONG KEY         1000            83 87  190/ 15/ 17 1008.9F
MOLASSES REEF    1100            82 81  190/ 14/ 15 1008.3S
FOWEY ROCKS      NOT AVBL

$$


USA.gov is the U.S. government's official web portal to all federal, state and local government web resources and services.